GW4996 Weather Reports


time (UTC)temp
C
wind
direction
speed
KPH
gust
KPH
rain 1hr
cm
rain 24hr
cm
rain mn
cm
humidity
%
barometer
mb
20260503053507 26 244 1.6 11.3 0.00 0.00 0.00 82 1013.7
20260503053004 26 244 0.0 11.3 0.00 0.00 0.00 82 1013.9
20260503052504 26 244 1.6 12.9 0.00 0.00 0.00 81 1014.0
20260503052007 26 244 3.2 12.9 0.00 0.00 0.00 81 1014.1
20260503051506 26 245 3.2 11.3 0.00 0.00 0.00 81 1014.1
20260503051003 26 245 0.0 11.3 0.00 0.00 0.00 81 1014.2
20260503050507 26 245 1.6 8.0 0.00 0.00 0.00 81 1014.2
20260503050015 26 245 1.6 11.3 0.00 0.00 0.00 81 1014.2
20260503045509 26 245 4.8 11.3 0.00 0.00 0.00 80 1014.2
20260503045004 26 244 4.8 12.9 0.00 0.00 0.00 80 1014.3
20260503044516 26 244 3.2 12.9 0.00 0.00 0.00 80 1014.2
20260503044007 26 244 3.2 11.3 0.00 0.00 0.00 80 1014.3
20260503043506 26 244 4.8 12.9 0.00 0.00 0.00 80 1014.2
20260503043022 26 243 1.6 12.9 0.00 0.00 0.00 79 1014.2
20260503042508 26 243 6.4 12.9 0.00 0.00 0.00 79 1014.3
20260503042011 26 244 6.4 12.9 0.00 0.00 0.00 79 1014.3
20260503041506 26 244 4.8 14.5 0.00 0.00 0.00 79 1014.3
20260503041005 27 246 8.0 14.5 0.00 0.00 0.00 79 1014.3
20260503040511 27 250 6.4 16.1 0.00 0.00 0.00 78 1014.4
20260503040011 27 249 6.4 16.1 0.00 0.00 0.00 78 1014.3
20260503035506 27 254 4.8 12.9 0.00 0.00 0.00 78 1014.3
20260503035009 27 246 4.8 12.9 0.00 0.00 0.00 78 1014.2
20260503034514 27 244 4.8 14.5 0.00 0.00 0.00 77 1014.2
20260503034006 27 244 6.4 14.5 0.00 0.00 0.00 77 1014.1
20260503033505 27 243 1.6 14.5 0.00 0.00 0.00 77 1014.1
20260503033025 27 243 6.4 14.5 0.00 0.00 0.00 76 1013.9
20260503032506 27 244 3.2 11.3 0.00 0.00 0.00 76 1013.7
20260503032008 27 243 4.8 11.3 0.00 0.00 0.00 76 1013.6
20260503031524 27 244 1.6 12.9 0.00 0.00 0.00 75 1013.6
20260503031009 27 244 4.8 16.1 0.00 0.00 0.00 75 1013.7
20260503030512 27 246 9.7 17.7 0.00 0.00 0.00 75 1013.7
20260503030007 27 261 3.2 17.7 0.00 0.00 0.00 75 1013.7
20260503025502 27 268 6.4 17.7 0.00 0.00 0.00 74 1013.7
20260503025005 27 256 3.2 16.1 0.00 0.00 0.00 74 1013.5
20260503024513 27 254 8.0 16.1 0.00 0.00 0.00 74 1013.6
20260503024006 27 249 6.4 14.5 0.00 0.00 0.00 73 1013.5
20260503023507 27 252 6.4 14.5 0.00 0.00 0.00 73 1013.6
20260503023016 27 240 6.4 16.1 0.00 0.00 0.00 73 1013.6
20260503022505 27 244 4.8 16.1 0.00 0.00 0.00 72 1013.6
20260503022006 27 250 6.4 14.5 0.00 0.00 0.00 72 1013.6
20260503021520 27 247 3.2 14.5 0.00 0.00 0.00 71 1013.5
20260503021007 27 248 6.4 14.5 0.00 0.00 0.00 71 1013.5
20260503020506 28 246 8.0 16.1 0.00 0.00 0.00 70 1013.4
20260503020027 28 236 4.8 19.3 0.00 0.00 0.00 69 1013.4
20260503015508 28 239 11.3 19.3 0.00 0.00 0.00 69 1013.5
20260503015010 28 246 8.0 19.3 0.00 0.00 0.00 68 1013.5
20260503014527 28 251 4.8 16.1 0.00 0.00 0.00 67 1013.4
20260503014004 28 245 9.7 19.3 0.00 0.00 0.00 67 1013.5
20260503013504 28 239 8.0 19.3 0.00 0.00 0.00 66 1013.5
20260503013018 28 241 8.0 19.3 0.00 0.00 0.00 65 1013.5
20260503012506 28 246 8.0 19.3 0.00 0.00 0.00 64 1013.4
20260503012007 28 246 8.0 22.5 0.00 0.00 0.00 64 1013.3
20260503011520 28 259 9.7 22.5 0.00 0.00 0.00 63 1013.2
20260503011007 28 263 11.3 22.5 0.00 0.00 0.00 62 1013.2
20260503010509 28 251 8.0 20.9 0.00 0.00 0.00 61 1013.0
20260503010025 29 252 8.0 16.1 0.00 0.00 0.00 60 1013.0
20260503005508 29 250 9.7 16.1 0.00 0.00 0.00 60 1012.9
20260503005010 29 263 6.4 20.9 0.00 0.00 0.00 59 1012.9
20260503004551 29 246 12.9 20.9 0.00 0.00 0.00 59 1012.9
20260503004011 29 268 9.7 20.9 0.00 0.00 0.00 58 1012.9
20260503003507 29 253 14.5 20.9 0.00 0.00 0.00 57 1012.9
20260503003040 30 253 12.9 20.9 0.00 0.00 0.00 56 1012.8
20260503002504 30 259 12.9 20.9 0.00 0.00 0.00 56 1012.7
20260503002007 30 275 9.7 29.0 0.00 0.00 0.00 55 1012.5
20260503001538 30 259 9.7 29.0 0.00 0.00 0.00 54 1012.4
20260503001007 30 260 14.5 24.1 0.00 0.00 0.00 54 1012.4
20260503000506 30 261 16.1 24.1 0.00 0.00 0.00 53 1012.3
20260503000022 30 248 9.7 24.1 0.00 0.00 0.00 51 1012.1
20260502235510 31 252 9.7 29.0 0.00 0.00 0.00 50 1012.1
20260502235008 31 271 12.9 29.0 0.00 0.00 0.00 49 1012.0
20260502234527 31 255 16.1 25.7 0.00 0.00 0.00 48 1012.0
20260502234009 31 253 14.5 24.1 0.00 0.00 0.00 48 1011.9
20260502233507 31 249 14.5 24.1 0.00 0.00 0.00 47 1011.8
20260502233028 31 255 12.9 20.9 0.00 0.00 0.00 46 1011.7
20260502232507 32 255 8.0 20.9 0.00 0.00 0.00 45 1011.5
20260502232007 32 243 9.7 20.9 0.00 0.00 0.00 44 1011.4
20260502231526 32 267 11.3 20.9 0.00 0.00 0.00 43 1011.3
20260502231005 32 228 9.7 20.9 0.00 0.00 0.00 42 1011.2
20260502230507 32 246 11.3 17.7 0.00 0.00 0.00 41 1011.1
20260502230018 32 242 9.7 22.5 0.00 0.00 0.00 41 1011.1
20260502225507 32 245 11.3 22.5 0.00 0.00 0.00 40 1011.0
20260502225014 33 236 12.9 20.9 0.00 0.00 0.00 39 1010.9
20260502224522 33 237 12.9 24.1 0.00 0.00 0.00 40 1010.9
20260502224009 33 271 12.9 24.1 0.00 0.00 0.00 39 1010.8
20260502223510 33 259 12.9 17.7 0.00 0.00 0.00 39 1010.8
20260502223031 33 263 8.0 24.1 0.00 0.00 0.00 39 1010.8
20260502222508 33 231 11.3 25.7 0.00 0.00 0.00 39 1010.8
20260502222008 33 243 12.9 25.7 0.00 0.00 0.00 39 1010.8
20260502221528 33 242 14.5 24.1 0.00 0.00 0.00 38 1010.7
20260502221009 34 217 11.3 24.1 0.00 0.00 0.00 38 1010.7
20260502220508 34 225 12.9 24.1 0.00 0.00 0.00 39 1010.7
20260502220033 34 234 6.4 24.1 0.00 0.00 0.00 39 1010.8
20260502215512 34 216 12.9 27.4 0.00 0.00 0.00 39 1010.7
20260502215007 34 253 19.3 27.4 0.00 0.00 0.00 38 1010.7
20260502214522 34 234 16.1 27.4 0.00 0.00 0.00 38 1010.6
20260502214011 34 250 16.1 27.4 0.00 0.00 0.00 38 1010.6
20260502213511 35 245 14.5 25.7 0.00 0.00 0.00 37 1010.5
20260502213025 35 241 11.3 27.4 0.00 0.00 0.00 37 1010.5
20260502212512 35 241 12.9 27.4 0.00 0.00 0.00 36 1010.4
20260502212013 35 238 9.7 25.7 0.00 0.00 0.00 36 1010.3
20260502211528 35 246 14.5 27.4 0.00 0.00 0.00 36 1010.3
20260502211006 35 205 12.9 27.4 0.00 0.00 0.00 36 1010.3
20260502210510 35 263 11.3 27.4 0.00 0.00 0.00 36 1010.2
20260502210015 35 248 16.1 27.4 0.00 0.00 0.00 36 1010.2
20260502205506 35 254 12.9 27.4 0.00 0.00 0.00 37 1010.3
20260502205004 35 225 9.7 30.6 0.00 0.00 0.00 37 1010.4
20260502204509 35 260 14.5 30.6 0.00 0.00 0.00 36 1010.4
20260502204003 35 218 11.3 27.4 0.00 0.00 0.00 36 1010.4
20260502203504 35 235 11.3 27.4 0.00 0.00 0.00 36 1010.3
20260502203004 35 273 11.3 25.7 0.00 0.00 0.00 36 1010.2
20260502202504 35 247 9.7 30.6 0.00 0.00 0.00 38 1010.2
20260502202004 35 227 11.3 30.6 0.00 0.00 0.00 38 1010.2
20260502201509 35 227 12.9 37.0 0.00 0.00 0.00 37 1010.3
20260502201003 35 186 19.3 37.0 0.00 0.00 0.00 39 1010.5
20260502200503 35 281 17.7 32.2 0.00 0.00 0.00 36 1010.6
20260502200012 35 255 9.7 30.6 0.00 0.00 0.00 37 1010.7
20260502195505 35 204 9.7 30.6 0.00 0.00 0.00 38 1010.8
20260502195008 35 262 17.7 30.6 0.00 0.00 0.00 39 1010.7
20260502194523 35 215 14.5 30.6 0.00 0.00 0.00 40 1010.7
20260502194008 35 246 17.7 32.2 0.00 0.00 0.00 40 1010.7
20260502193506 35 227 14.5 33.8 0.00 0.00 0.00 41 1010.7
20260502193006 35 230 17.7 33.8 0.00 0.00 0.00 38 1010.8
20260502192502 35 243 12.9 29.0 0.00 0.00 0.00 41 1011.0
20260502192005 35 221 11.3 29.0 0.00 0.00 0.00 41 1011.0
20260502191504 35 234 12.9 29.0 0.00 0.00 0.00 43 1011.1
20260502191003 35 225 16.1 29.0 0.00 0.00 0.00 44 1011.0
20260502190503 35 222 6.4 32.2 0.00 0.00 0.00 42 1011.0
20260502190008 35 280 17.7 32.2 0.00 0.00 0.00 45 1011.0
20260502185507 35 267 16.1 30.6 0.00 0.00 0.00 44 1011.1
20260502185004 35 239 9.7 27.4 0.00 0.00 0.00 44 1011.0
20260502184512 35 255 14.5 27.4 0.00 0.00 0.00 45 1011.0
20260502184008 35 222 11.3 27.4 0.00 0.00 0.00 43 1011.1
20260502183507 35 242 14.5 25.7 0.00 0.00 0.00 43 1011.1
20260502183020 35 182 11.3 25.7 0.00 0.00 0.00 43 1011.2
20260502182508 35 234 9.7 29.0 0.00 0.00 0.00 43 1011.3
20260502182009 35 215 14.5 30.6 0.00 0.00 0.00 42 1011.3
20260502181504 35 230 14.5 30.6 0.00 0.00 0.00 42 1011.3
20260502181005 35 247 11.3 30.6 0.00 0.00 0.00 44 1011.3
20260502180503 35 231 19.3 30.6 0.00 0.00 0.00 42 1011.4
20260502170510 32 202 9.7 25.7 0.00 0.00 0.00 56 1011.6
20260502164007 33 229 12.9 29.0 0.00 0.00 0.00 53 1011.9
20260502163507 33 190 4.8 29.0 0.00 0.00 0.00 55 1011.8
20260502163014 33 244 8.0 24.1 0.00 0.00 0.00 54 1011.9
20260502162507 33 181 9.7 24.1 0.00 0.00 0.00 55 1011.9
20260502162012 33 200 9.7 24.1 0.00 0.00 0.00 56 1012.0
20260502161519 33 186 6.4 25.7 0.00 0.00 0.00 59 1012.0
20260502161009 32 180 8.0 25.7 0.00 0.00 0.00 60 1012.0
20260502160509 32 179 9.7 20.9 0.00 0.00 0.00 60 1012.1
20260502152007 31 203 11.3 25.7 0.00 0.00 0.00 62 1012.4
20260502151516 31 167 16.1 25.7 0.00 0.00 0.00 63 1012.5
20260502151007 31 170 11.3 19.3 0.00 0.00 0.00 64 1012.4
20260502150508 31 192 8.0 19.3 0.00 0.00 0.00 64 1012.4
20260502130503 28 180 9.7 22.5 0.00 0.00 0.00 74 1011.9
20260502123513 27 204 4.8 17.7 0.00 0.00 0.00 79 1012.1
20260502123025 27 175 6.4 17.7 0.00 0.00 0.00 80 1012.0
20260502122511 27 178 8.0 14.5 0.00 0.00 0.00 81 1011.9
20260502122011 27 193 6.4 12.9 0.00 0.00 0.00 82 1011.9
20260502121528 27 165 4.8 14.5 0.00 0.00 0.00 83 1011.9
20260502121010 27 165 4.8 14.5 0.00 0.00 0.00 83 1011.9
20260502120507 26 179 3.2 9.7 0.00 0.00 0.00 84 1012.0
20260502115505 26 186 3.2 8.0 0.00 0.00 0.00 86 1011.8
20260502115007 26 188 1.6 6.4 0.00 0.00 0.00 86 1011.8
20260502114521 25 188 1.6 4.8 0.00 0.00 0.00 86 1011.8
20260502114008 25 188 1.6 4.8 0.00 0.00 0.00 86 1011.9
20260502113508 25 188 0.0 3.2 0.00 0.00 0.00 86 1011.8
20260502113022 25 188 0.0 3.2 0.00 0.00 0.00 86 1011.9
20260502112507 25 186 0.0 1.6 0.00 0.00 0.00 86 1011.9
20260502112012 24 186 0.0 1.6 0.00 0.00 0.00 86 1011.9
20260502111524 24 186 0.0 1.6 0.00 0.00 0.00 86 1011.9
20260502111007 24 186 0.0 0.0 0.00 0.00 0.00 85 1011.9
20260502110507 24 186 0.0 1.6 0.00 0.00 0.00 85 1011.9
20260502110026 24 186 0.0 1.6 0.00 0.00 0.00 85 1011.9
20260502105512 24 186 0.0 1.6 0.00 0.00 0.00 85 1011.9
20260502105010 24 121 0.0 0.0 0.00 0.00 0.00 84 1011.9
20260502104535 24 121 0.0 1.6 0.00 0.00 0.00 84 1011.9
20260502104008 24 121 0.0 1.6 0.00 0.00 0.00 84 1011.8
20260502103508 24 121 0.0 0.0 0.00 0.00 0.00 84 1011.8
20260502103022 24 170 0.0 1.6 0.00 0.00 0.00 84 1011.8
20260502102509 24 170 0.0 1.6 0.00 0.00 0.00 84 1011.7
20260502102009 24 170 0.0 1.6 0.00 0.00 0.00 84 1011.8
20260502101523 24 170 0.0 1.6 0.00 0.00 0.00 84 1011.9
20260502101009 24 170 0.0 1.6 0.00 0.00 0.00 84 1011.9
20260502100509 24 170 0.0 1.6 0.00 0.00 0.00 84 1012.0
20260502091527 24 170 0.0 3.2 0.00 0.00 0.00 85 1011.8
20260502091010 24 170 0.0 6.4 0.00 0.00 0.00 85 1011.8
20260502090509 24 170 0.0 6.4 0.00 0.00 0.00 85 1011.9
20260502071512 25 170 0.0 0.0 0.00 0.00 0.00 86 1011.9
20260502071004 25 170 0.0 0.0 0.00 0.00 0.00 85 1011.7
20260502070507 25 170 0.0 0.0 0.00 0.00 0.00 85 1011.7
20260502070004 25 170 0.0 0.0 0.00 0.00 0.00 85 1011.7
20260502065504 25 170 0.0 0.0 0.00 0.00 0.00 86 1011.8
20260502065003 25 170 0.0 0.0 0.00 0.00 0.00 85 1011.8
20260502064507 25 170 0.0 0.0 0.00 0.00 0.00 85 1011.9
20260502064003 25 170 0.0 0.0 0.00 0.00 0.00 85 1011.9
20260502063504 25 170 0.0 0.0 0.00 0.00 0.00 85 1011.9
20260502063012 25 170 0.0 0.0 0.00 0.00 0.00 85 1011.9
20260502062507 25 170 0.0 0.0 0.00 0.00 0.00 84 1012.0
20260502062006 25 170 0.0 0.0 0.00 0.00 0.00 84 1012.0
20260502061525 25 170 0.0 3.2 0.00 0.00 0.00 84 1012.0
20260502061006 25 170 0.0 3.2 0.00 0.00 0.00 84 1012.0
20260502060507 25 170 0.0 3.2 0.00 0.00 0.00 84 1012.0
20260502060015 25 170 0.0 3.2 0.00 0.00 0.00 84 1012.0
20260502055506 25 170 0.0 6.4 0.00 0.00 0.00 84 1011.9
20260502055007 25 170 0.0 6.4 0.00 0.00 0.00 84 1011.9
20260502054503 25 170 0.0 6.4 0.00 0.00 0.00 84 1011.9
20260502054003 25 170 1.6 6.4 0.00 0.00 0.00 84 1011.9